[[{"header":{"parameterUnit":"m.s-1","parameterCategory":1,"la1":30.2991,"la2":30.254,"lo1":-89.0895,"lo2":-89.0444,"dy":0.0017,"dx":0.0017,"nx":28,"ny":28,"refTime":"2025-04-19T09:00:00:Z","depth":0,"parameterNumber":2,"parameterNumberName":"U-component_of_WINDS"},"data":[0,0,0,0,0,0,0,0,0,0,0,0,0,0,0,0,0,0,0,0,0,0,0,0,0,0,0,0,0,0,0,0,0,0,0,0,0,0,0,0,0,0,0,0,0,0,0,0,0,0,0,0,0,0,0,0,0,0,-4.4832,-4.4834,0,-4.4952,-4.4953,-4.4955,-4.4945,-4.4943,-4.4941,-4.4939,-4.5061,-4.5066,-4.5071,0,0,0,0,0,0,0,0,0,0,0,0,0,-4.4595,-4.4599,-4.4832,-4.4834,-4.4835,-4.4952,-4.4953,-4.4955,-4.4945,-4.4943,-4.4941,-4.4939,-4.506,-4.5066,-4.5072,0,0,0,0,0,0,0,0,0,0,0,0,0,-4.4705,-4.4601,-4.4832,-4.4844,-4.4847,-4.4951,-4.4953,-4.4955,-4.4945,-4.4943,-4.494,-4.4937,-4.5058,-4.5065,-4.5072,-4.5172,0,0,-4.5095,-4.5098,0,0,0,0,0,0,0,0,-4.4698,-4.4713,-4.4841,-4.4844,-4.4846,-4.4931,-4.4914,-4.5028,-4.4946,-4.4908,-4.4939,-4.4936,-4.502,-4.503,-4.5059,-4.5178,-4.5183,-4.5096,-4.51,-4.5103,-4.5105,0,0,0,0,0,0,0,-4.4691,-4.4708,-4.488,-4.4843,-4.4846,-4.4844,-4.4856,-4.4936,-4.4978,-4.4911,-4.4911,-4.4925,-4.5021,-4.5052,-4.5062,-4.5185,-4.5095,-4.5102,-4.5107,-4.5109,-4.5391,-4.5394,0,0,0,0,0,0,-4.468,-4.4702,-4.4876,-4.4883,-4.4764,-4.485,-4.4864,-4.4906,-4.4977,-4.4985,-4.4927,-4.4924,-4.504,-4.5053,-4.5066,-4.5186,-4.5103,-4.511,-4.5114,-4.5388,-4.5392,-4.5395,0,0,0,0,0,0,-4.4675,-4.4696,-4.4871,-4.4792,-4.4815,-4.4857,-4.4904,-4.491,-4.4941,-4.4989,-4.4996,-4.4951,-4.5039,-4.5055,-4.5146,-4.519,-4.5114,-4.512,-4.5384,-4.5389,-4.5393,-4.5428,0,0,0,0,0,0,-4.4669,-4.4694,-4.4733,-4.4793,-4.4819,-4.4949,-4.4907,-4.4914,-4.4953,-4.4951,-4.5013,-4.5021,-4.5038,-4.5135,-4.5153,-4.5199,-4.5126,-4.5381,-4.5386,-4.5392,-4.5423,-4.5433,-4.5441,0,0,0,0,0,-4.466,-4.4738,-4.4735,-4.4756,-4.4868,-4.4952,-4.4966,-4.4984,-4.4957,-4.4996,-4.5027,-4.5019,-4.5183,-4.5144,-4.5165,-4.5213,-4.5378,-4.5385,-4.5391,-4.5418,-4.5431,-4.5441,0,0,0,0,0,0,-4.4681,-4.4746,-4.4743,-4.4843,-4.4892,-4.495,-4.4999,-4.4997,-4.5054,-4.5049,-4.5069,-4.5083,-4.5174,-4.5203,-4.5159,-4.5313,-4.5277,-4.5288,-4.529,-4.5302,-4.5312,-4.5301,-4.5132,0,0,0,0,0,-4.4698,-4.4761,-4.4814,-4.4897,-4.4921,-4.4956,-4.4993,-4.5003,-4.5054,-4.5075,-4.5112,-4.5162,-4.5225,-4.5266,-4.5326,-4.5428,-4.544,-4.5472,-4.5481,-4.5488,-4.5497,-4.5551,-4.5565,-4.5417,-4.5417,-4.5417,0,0,-4.4732,-4.4775,-4.4814,-4.4902,-4.4941,-4.5005,-4.4974,-4.5043,-4.509,-4.5085,-4.5172,-4.5202,-4.5259,-4.5355,-4.5399,-4.5382,-4.5541,-4.5497,-4.5503,-4.5507,-4.556,-4.5574,-4.5586,-4.5422,-4.5421,-4.542,0,0,-4.4827,-4.4867,-4.4939,-4.4979,-4.5038,-4.5061,-4.5078,-4.5137,-4.5156,-4.5243,-4.5241,-4.5298,-4.5406,-4.5446,-4.548,-4.559,-4.5584,-4.561,-4.5658,-4.571,-4.5722,-4.5732,-4.5769,-4.5783,-4.5619,-4.5619,-4.5619,0,-4.4862,-4.4958,-4.4977,-4.5046,-4.5085,-4.5084,-4.5157,-4.5194,-4.527,-4.5297,-4.5277,-4.5411,-4.545,-4.5554,-4.5581,-4.561,-4.5629,-4.5601,-4.5719,-4.5729,-4.5739,-4.5775,-4.5789,-4.5621,-4.5621,-4.5621,-4.5621,0,-4.4997,-4.5064,-4.5115,-4.5188,-4.5233,-4.5304,-4.5333,-4.5376,-4.5382,-4.5407,-4.5495,-4.5542,-4.5611,-4.5637,-4.5644,-4.5742,-4.5729,-4.5714,-4.5678,-4.5755,-4.5789,-4.5803,-4.5625,-4.5624,-4.5623,-4.5623,0,0,-4.5107,-4.5189,-4.5208,-4.524,-4.5305,-4.5357,-4.5428,-4.5496,-4.5531,-4.5584,-4.5643,-4.5734,-4.572,-4.576,-4.5771,-4.5818,-4.5899,-4.5797,-4.5798,-4.5812,-4.6008,-4.6017,-4.6033,-4.5897,-4.59,-4.5902,-4.6003,0,-4.5206,-4.5331,-4.535,-4.546,-4.5521,-4.5521,-4.5583,-4.5629,-4.5654,-4.571,-4.5738,-4.5801,-4.5779,-4.5803,-4.5849,-4.588,-4.5939,-4.5873,-4.595,-4.5953,-4.5933,-4.6051,-4.6061,-4.6154,-4.6016,-4.6019,-4.602,0,-4.5339,-4.5394,-4.551,-4.5566,-4.5592,-4.5647,-4.571,-4.5763,-4.5816,-4.5831,-4.5875,-4.5881,-4.5953,-4.5915,-4.6015,-4.597,-4.6003,-4.6024,-4.6028,-4.6033,-4.5989,-4.6058,-4.6184,-4.6197,-4.6042,-4.604,-4.6038,0,-4.5404,-4.5509,-4.5591,-4.5619,-4.5687,-4.5725,-4.5755,-4.5805,-4.5844,-4.5899,-4.5924,-4.5988,-4.6022,-4.607,-4.6093,-4.6064,-4.6191,-4.6155,-4.6204,-4.6203,-4.6229,-4.6226,-4.636,-4.6254,-4.6254,-4.6254,-4.6254,0,-4.5512,-4.5582,-4.5621,-4.5671,-4.5749,-4.5771,-4.5848,-4.5877,-4.5921,-4.5977,-4.5982,-4.6034,-4.6062,-4.6118,-4.6137,-4.6215,-4.6232,-4.6245,-4.6248,-4.6243,-4.6241,-4.6263,-4.6256,-4.6258,-4.6257,-4.6256,-4.6256,0,-4.5598,-4.5627,-4.5716,-4.5773,-4.5789,-4.5844,-4.5892,-4.5941,-4.5966,-4.6036,-4.6054,-4.6093,-4.6159,-4.6187,-4.6269,-4.6282,-4.6371,-4.6371,-4.6353,-4.6354,-4.64,-4.6394,-4.655,-4.6571,-4.6454,-4.6455,-4.6456,0,-4.5663,-4.5717,-4.578,-4.5817,-4.5848,-4.5909,-4.5948,-4.5971,-4.6012,-4.6076,-4.6117,-4.6183,-4.6237,-4.6343,-4.6378,-4.6441,-4.6441,-4.6491,-4.645,-4.6442,-4.6439,-4.6434,-4.6439,-4.6498,-4.6499,-4.65,-4.6501,0,-4.5776,-4.5787,-4.5844,-4.5906,-4.5953,-4.6003,-4.6051,-4.6082,-4.6112,-4.6158,-4.6226,-4.6268,-4.6351,-4.6416,-4.648,-4.6511,-4.6511,-4.6514,-4.6528,-4.6522,-4.6508,-4.6514,-4.6371,-4.651,-4.6509,-4.6508,-4.6508,-4.6507,-4.5852,-4.5899,-4.595,-4.6013,-4.6052,-4.6097,-4.6145,-4.6176,-4.6232,-4.6301,-4.6312,-4.6384,-4.6434,-4.6521,-4.6554,-4.661,-4.6597,-4.6619,-4.6623,-4.6628,-4.6629,-4.6501,-4.6622,-4.6622,-4.6622,-4.6622,-4.6622,0,-4.5963,-4.5996,-4.6053,-4.612,-4.617,-4.6166,-4.6219,-4.626,-4.6323,-4.6371,-4.6424,-4.65,-4.6564,-4.6605,-4.6668,-4.6705,-4.6707,-4.6721,-4.6717,-4.6724,-4.6638,-4.6619,-4.6719,-4.6719,-4.6719,-4.6718,-4.6718,-4.6718,-4.6026,-4.6105,-4.6123,-4.622,-4.6253,-4.6323,-4.6353,-4.6395,-4.6432,-4.6518,-4.657,-4.6596,-4.6641,-4.6708,-4.6765,-4.6776,-4.6798,-4.6812,-4.6822,-4.674,-4.673,-4.672,-4.6702,-4.6818,-4.6818,-4.6902,-4.6903,-4.6904]},{"header":{"parameterUnit":"m.s-1","parameterCategory":1,"la1":30.2991,"la2":30.254,"lo1":-89.0895,"lo2":-89.0444,"dy":0.0017,"dx":0.0017,"nx":28,"ny":28,"refTime":"2025-04-19T09:00:00:Z","depth":0,"parameterNumber":3,"parameterNumberName":"V-component_of_WINDS"},"data":[0,0,0,0,0,0,0,0,0,0,0,0,0,0,0,0,0,0,0,0,0,0,0,0,0,0,0,0,0,0,0,0,0,0,0,0,0,0,0,0,0,0,0,0,0,0,0,0,0,0,0,0,0,0,0,0,0,0,4.3087,4.3088,0,4.3187,4.3188,4.3189,4.3175,4.3174,4.3172,4.317,4.3268,4.3272,4.3276,0,0,0,0,0,0,0,0,0,0,0,0,0,4.2883,4.2887,4.3087,4.3088,4.309,4.3186,4.3188,4.3189,4.3175,4.3173,4.3171,4.317,4.3267,4.3272,4.3277,0,0,0,0,0,0,0,0,0,0,0,0,0,4.2976,4.2888,4.3087,4.3095,4.3096,4.3186,4.3188,4.3189,4.3176,4.3173,4.3171,4.3169,4.3265,4.3271,4.3277,4.3365,0,0,4.3296,4.3299,0,0,0,0,0,0,0,0,4.297,4.2983,4.3092,4.3094,4.3096,4.3166,4.3152,4.3248,4.3177,4.3146,4.317,4.3167,4.3236,4.3244,4.3268,4.3369,4.3374,4.3297,4.3301,4.3303,4.3305,0,0,0,0,0,0,0,4.2964,4.2979,4.3126,4.3094,4.3096,4.3092,4.3103,4.317,4.3203,4.3148,4.3147,4.3159,4.3237,4.3262,4.3271,4.3375,4.3297,4.3302,4.3306,4.3309,4.3553,4.3556,0,0,0,0,0,0,4.2956,4.2973,4.3123,4.3129,4.3026,4.3098,4.311,4.3146,4.3202,4.3209,4.3161,4.3158,4.3253,4.3263,4.3274,4.338,4.3303,4.3309,4.3313,4.3551,4.3554,4.3557,0,0,0,0,0,0,4.2952,4.2969,4.3119,4.3051,4.307,4.3104,4.3145,4.3149,4.3175,4.3213,4.3218,4.3182,4.3252,4.3265,4.3343,4.3384,4.3312,4.3318,4.3547,4.3552,4.3556,4.3594,0,0,0,0,0,0,4.2946,4.2968,4.3002,4.3052,4.3074,4.3187,4.3148,4.3153,4.3186,4.3183,4.3233,4.3239,4.3251,4.3334,4.3349,4.3391,4.3322,4.3544,4.3549,4.3554,4.3589,4.3599,4.3607,0,0,0,0,0,4.2939,4.3008,4.3004,4.3022,4.3117,4.319,4.3202,4.3215,4.319,4.3224,4.3248,4.3238,4.3377,4.3342,4.3359,4.3403,4.3541,4.3548,4.3554,4.3585,4.3597,4.3607,0,0,0,0,0,0,4.296,4.3014,4.3011,4.3098,4.314,4.3187,4.3231,4.3227,4.3275,4.327,4.3283,4.3294,4.3373,4.3396,4.3356,4.3491,4.3456,4.3466,4.3473,4.3485,4.3494,4.3486,4.3328,0,0,0,0,0,4.2975,4.303,4.3075,4.3148,4.3169,4.3196,4.3228,4.3235,4.3278,4.3295,4.3324,4.3365,4.3418,4.3453,4.3504,4.3593,4.3603,4.3632,4.3641,4.3648,4.3656,4.3705,4.3719,4.3578,4.3578,4.3578,0,0,4.3006,4.3043,4.3077,4.3153,4.3186,4.3242,4.3211,4.3271,4.3313,4.3303,4.3379,4.3402,4.3449,4.3533,4.3571,4.3554,4.3698,4.3656,4.3661,4.3666,4.3713,4.3726,4.3738,4.3582,4.3581,4.3581,0,0,4.3092,4.3126,4.3191,4.3225,4.3275,4.3294,4.3309,4.3358,4.3374,4.345,4.3444,4.3493,4.3584,4.3618,4.3647,4.3748,4.374,4.3764,4.3811,4.3859,4.387,4.388,4.3916,4.3928,4.3772,4.3772,4.3772,0,4.3124,4.321,4.3224,4.3286,4.332,4.3315,4.3381,4.3413,4.3477,4.35,4.3481,4.3596,4.3627,4.3719,4.3743,4.3767,4.3785,4.3758,4.3867,4.3877,4.3887,4.3921,4.3935,4.3775,4.3774,4.3774,4.3774,0,4.3247,4.3307,4.3353,4.3417,4.3456,4.3519,4.3542,4.358,4.3583,4.3603,4.3681,4.3719,4.3777,4.38,4.3803,4.3893,4.3881,4.3864,4.3829,4.3902,4.3935,4.3948,4.3778,4.3777,4.3777,4.3776,0,0,4.3348,4.3421,4.3437,4.3467,4.3523,4.3569,4.3632,4.3691,4.3723,4.3767,4.3821,4.3899,4.3884,4.3917,4.3924,4.3966,4.4044,4.3945,4.3946,4.3962,4.4146,4.4158,4.4173,4.404,4.4042,4.4044,4.4142,0,4.344,4.3553,4.3568,4.3668,4.3723,4.372,4.3775,4.3816,4.3836,4.3885,4.3908,4.3963,4.394,4.396,4.4001,4.4026,4.4081,4.4019,4.4089,4.4091,4.4077,4.419,4.4202,4.4293,4.4154,4.4157,4.4158,0,4.3561,4.3611,4.3717,4.3767,4.3791,4.384,4.3896,4.3943,4.3988,4.4001,4.4039,4.4041,4.4106,4.4068,4.4158,4.4115,4.4144,4.4161,4.4165,4.4171,4.4129,4.4199,4.4321,4.4335,4.4178,4.4177,4.4175,0,4.3625,4.3718,4.3794,4.3819,4.3879,4.3914,4.394,4.3983,4.4018,4.4067,4.4089,4.4144,4.4174,4.4216,4.4233,4.4204,4.4322,4.4286,4.4334,4.4333,4.4358,4.4356,4.4486,4.4377,4.4377,4.4377,4.4376,0,4.3725,4.379,4.3824,4.387,4.3943,4.3959,4.403,4.4055,4.4094,4.4145,4.4145,4.4193,4.4213,4.4263,4.4277,4.4349,4.4362,4.4373,4.4376,4.4374,4.4372,4.4393,4.4387,4.438,4.438,4.4379,4.4378,0,4.3808,4.3833,4.3916,4.3966,4.398,4.4032,4.4075,4.4119,4.414,4.4204,4.422,4.4253,4.4312,4.4334,4.4406,4.4415,4.4499,4.4496,4.4484,4.4484,4.4531,4.4527,4.4679,4.47,4.4577,4.4578,4.4579,0,4.3871,4.3921,4.3977,4.4012,4.404,4.4096,4.4132,4.4151,4.4188,4.4245,4.4283,4.4342,4.4391,4.4486,4.4515,4.4571,4.4569,4.4619,4.4578,4.4574,4.457,4.4567,4.4572,4.4627,4.4628,4.4629,4.463,0,4.3979,4.3989,4.4042,4.41,4.4143,4.4189,4.4233,4.4261,4.4286,4.4328,4.439,4.4428,4.4503,4.4562,4.4619,4.4645,4.4642,4.4643,4.4657,4.4654,4.4645,4.4651,4.4505,4.4639,4.4638,4.4637,4.4637,4.4637,4.4054,4.4099,4.4146,4.4205,4.4241,4.4282,4.4327,4.4354,4.4407,4.447,4.4477,4.4544,4.4588,4.4665,4.4694,4.4746,4.4732,4.4752,4.4757,4.4762,4.4766,4.4638,4.4756,4.4756,4.4755,4.4755,4.4755,0,4.4163,4.4193,4.4247,4.431,4.4357,4.4351,4.44,4.4439,4.4498,4.4541,4.4589,4.466,4.4718,4.4753,4.481,4.4845,4.4845,4.486,4.4857,4.4864,4.4774,4.4757,4.4859,4.4859,4.4859,4.4859,4.4859,4.4859,4.4225,4.43,4.4316,4.441,4.444,4.4506,4.4535,4.4573,4.4607,4.4687,4.4736,4.4759,4.4798,4.4859,4.4912,4.492,4.4941,4.4957,4.4965,4.488,4.487,4.4859,4.4843,4.4962,4.4962,4.505,4.5051,4.5051]}]]